Location: Northcutt
(34.7304°N, 84.4305°W)
Time: 03:06:29
(UTC+00:00)

Vanguard 2 - Pass Details

Date: 11 October 2022
Orbit: 553 x 2933 km, 32.9° (Epoch: 05 December)

Event Time Altitude Azimuth Distance (km) Brightness Sun altitude
Rises 16:57:21 0° 256° (WSW) 3,646 11.0 47.6°
Reaches altitude 10° 16:59:30 10° 255° (WSW) 2,918 10.7 47.7°
Maximum altitude 17:06:50 77° 170° (S) 1,557 10.4 47.9°
Drops below altitude 10° 17:19:31 10° 87° (E) 4,835 11.7 48.0°
Sets 17:24:07 0° 87° (E) 6,165 12.1 48.1°
